Weather in Touggourt

Algeria     33°06′39″N   6°04′46″E
temp.,
°C
wind,
m/s
gust,
m/s
humid.,
%
clouds,
%
prec.,
mm/h
press.,
hPa
HPBL,
m
15 april, thu
thu1501:00+21e5631100 0.0 101269
04:00+20e61132100 0.0 1010170
07:00+20ese61229100 0.0 1011307
10:00+26e81017100 0.0 1009671
13:00+31ese101113100 0.0 10051486
16:00+34e91313100 0.0 9992620
19:00+30ene101416100 0.0 997287
22:00+20e1319437 0.0 999404
16 april, fri
fri1601:00+17ene9136499 0.0 999340
04:00+15ne811785 0.0 999356
07:00+16ne812702 0.0 1002514
10:00+21nne79450 0.0 10041126
13:00+25n47348 0.0 10041906
16:00+27nw562747 0.0 10022406
19:00+24nnw8103387 0.0 1005929
22:00+17nnw10154997 0.0 1009598
17 april, sat
sat1701:00+16nnw8115684 0.0 1010632
04:00+14nw813550 0.0 1009581
07:00+15nnw1114580 0.0 1011649
10:00+18n774535 0.0 10121173
13:00+20n45372 0.0 10121818
16:00+23nw88225 0.0 10112684
19:00+20nnw57228 0.0 1013127
22:00+16e46472 0.0 1015100
18 april, sun
sun1801:00+14e22565 0.0 101618
04:00+14nnw465096 0.0 101790
07:00+13nnw48491 0.0 1018232
10:00+17nnw77260 0.0 10201311
13:00+21nnw79140 0.0 10192392
16:00+22nw810135 0.0 10183340
19:00+19n69180 0.0 1019189
22:00+16nne44240 0.0 102144
19 april, mon
mon1901:00+14nne34290 0.0 102130
04:00+12ese34424 0.0 102132
07:00+12se2242100 0.0 102238
10:00+18ssw232795 0.0 1022687
13:00+22wsw2318100 0.0 10201832
16:00+23w23145 0.0 10172004
19:00+21ese33150 0.0 101615
22:00+19se61018100 0.0 1017130